• en France
  • Liste des pays
  • À 7 jours
  • Température de l'eau
  • Carte satellitaire
  • Carte météo
  • Widgets météo
  • user-avatar
    Se connecter

    Météo par heure à Bolshie Mozhary

    Ce jour, 24 Septembre, Lundi

    Heure Température Précipitation Vent Pression Humidité
    00:00 +10°C° 0.4 mm 3 m/s 748 mmHg 88%
    01:00 +9°C° 0 mm 3 m/s 748 mmHg 89%
    02:00 +9°C° 0 mm 3 m/s 748 mmHg 90%
    03:00 +8°C° 0 mm 2 m/s 748 mmHg 93%
    04:00 +8°C° 0 mm 2 m/s 748 mmHg 94%
    05:00 +7°C° 0 mm 2 m/s 748 mmHg 94%
    06:00 +7°C° 0 mm 2 m/s 749 mmHg 95%
    07:00 +8°C° 0 mm 2 m/s 749 mmHg 89%
    08:00 +10°C° 0 mm 2 m/s 749 mmHg 84%
    09:00 +12°C° 0 mm 2 m/s 749 mmHg 78%
    10:00 +12°C° 0 mm 3 m/s 749 mmHg 72%
    11:00 +14°C° 0 mm 3 m/s 749 mmHg 65%
    12:00 +15°C° 0 mm 4 m/s 749 mmHg 58%
    13:00 +15°C° 0 mm 4 m/s 749 mmHg 57%
    14:00 +15°C° 0 mm 4 m/s 748 mmHg 55%
    15:00 +15°C° 0 mm 4 m/s 748 mmHg 54%
    16:00 +14°C° 0.1 mm 4 m/s 747 mmHg 59%
    17:00 +13°C° 0.1 mm 3 m/s 747 mmHg 64%
    18:00 +13°C° 0.1 mm 3 m/s 746 mmHg 70%
    19:00 +12°C° 0.5 mm 4 m/s 746 mmHg 70%
    20:00 +12°C° 0.5 mm 5 m/s 745 mmHg 71%
    21:00 +11°C° 0.5 mm 7 m/s 745 mmHg 72%
    22:00 +11°C° 1 mm 7 m/s 744 mmHg 76%
    23:00 +11°C° 1 mm 8 m/s 743 mmHg 79%

    Demain, 25 Septembre, Mardi

    Heure Température Précipitation Vent Pression Humidité
    00:00 +10°C° 1 mm 8 m/s 742 mmHg 83%
    01:00 +10°C° 0.4 mm 8 m/s 742 mmHg 83%
    02:00 +10°C° 0.4 mm 8 m/s 742 mmHg 83%
    03:00 +10°C° 0.4 mm 7 m/s 741 mmHg 83%
    04:00 +10°C° 0.6 mm 7 m/s 741 mmHg 84%
    05:00 +10°C° 0.6 mm 6 m/s 741 mmHg 86%
    06:00 +9°C° 0.6 mm 5 m/s 740 mmHg 87%
    07:00 +9°C° 0.3 mm 6 m/s 741 mmHg 85%
    08:00 +9°C° 0.3 mm 6 m/s 741 mmHg 83%
    09:00 +9°C° 0.3 mm 6 m/s 741 mmHg 81%
    10:00 +9°C° 0 mm 6 m/s 741 mmHg 78%
    11:00 +9°C° 0 mm 6 m/s 742 mmHg 75%
    12:00 +10°C° 0 mm 6 m/s 742 mmHg 72%
    13:00 +10°C° 0 mm 6 m/s 742 mmHg 71%
    14:00 +10°C° 0 mm 7 m/s 743 mmHg 70%
    15:00 +10°C° 0 mm 7 m/s 743 mmHg 69%
    16:00 +10°C° 0 mm 6 m/s 743 mmHg 70%
    17:00 +9°C° 0 mm 6 m/s 744 mmHg 71%
    18:00 +9°C° 0 mm 6 m/s 744 mmHg 72%
    19:00 +8°C° 0 mm 6 m/s 745 mmHg 73%
    20:00 +8°C° 0 mm 6 m/s 745 mmHg 75%
    21:00 +7°C° 0 mm 6 m/s 746 mmHg 76%
    22:00 +7°C° 0.1 mm 6 m/s 746 mmHg 77%
    23:00 +6°C° 0.1 mm 7 m/s 747 mmHg 77%

    Après-demain, 26 Septembre, Mercredi

    Heure Température Précipitation Vent Pression Humidité
    00:00 +6°C° 0.1 mm 7 m/s 747 mmHg 78%
    01:00 +5°C° 0.1 mm 7 m/s 748 mmHg 79%
    02:00 +5°C° 0.1 mm 7 m/s 748 mmHg 79%
    03:00 +5°C° 0.1 mm 7 m/s 749 mmHg 80%
    04:00 +5°C° 0.3 mm 6 m/s 750 mmHg 81%
    05:00 +5°C° 0.3 mm 6 m/s 750 mmHg 81%
    06:00 +4°C° 0.3 mm 6 m/s 751 mmHg 82%
    07:00 +4°C° 0.1 mm 6 m/s 752 mmHg 79%
    08:00 +4°C° 0.1 mm 6 m/s 753 mmHg 77%
    09:00 +4°C° 0.1 mm 6 m/s 753 mmHg 75%
    10:00 +5°C° 0 mm 6 m/s 754 mmHg 71%
    11:00 +5°C° 0 mm 6 m/s 754 mmHg 67%
    12:00 +7°C° 0 mm 5 m/s 755 mmHg 64%
    13:00 +8°C° 0 mm 5 m/s 755 mmHg 60%
    14:00 +8°C° 0 mm 5 m/s 755 mmHg 55%
    15:00 +9°C° 0 mm 5 m/s 756 mmHg 51%
    16:00 +8°C° 0 mm 4 m/s 756 mmHg 54%
    17:00 +7°C° 0 mm 4 m/s 756 mmHg 56%
    18:00 +7°C° 0 mm 3 m/s 756 mmHg 59%
    19:00 +5°C° 0 mm 3 m/s 756 mmHg 61%
    20:00 +5°C° 0 mm 3 m/s 756 mmHg 63%
    21:00 +4°C° 0 mm 3 m/s 756 mmHg 65%
    22:00 +4°C° 0 mm 3 m/s 756 mmHg 66%
    23:00 +3°C° 0 mm 4 m/s 755 mmHg 67%

    27 Septembre, Jeudi

    Heure Température Précipitation Vent Pression Humidité
    00:00 +3°C° 0 mm 4 m/s 755 mmHg 68%
    01:00 +4°C° 0 mm 4 m/s 754 mmHg 67%
    02:00 +3°C° 0 mm 5 m/s 754 mmHg 66%
    03:00 +3°C° 0 mm 5 m/s 753 mmHg 65%
    04:00 +3°C° 0 mm 6 m/s 752 mmHg 66%
    05:00 +4°C° 0 mm 6 m/s 751 mmHg 67%
    06:00 +4°C° 0 mm 7 m/s 751 mmHg 68%
    07:00 +4°C° 0.7 mm 8 m/s 750 mmHg 71%
    08:00 +4°C° 0.7 mm 8 m/s 749 mmHg 74%
    09:00 +3°C° 0.7 mm 9 m/s 748 mmHg 77%
    10:00 +3°C° 1.3 mm 9 m/s 748 mmHg 79%
    11:00 +3°C° 1.3 mm 9 m/s 747 mmHg 81%
    12:00 +5°C° 1.3 mm 9 m/s 746 mmHg 83%
    13:00 +5°C° 0.5 mm 8 m/s 746 mmHg 83%
    14:00 +6°C° 0.5 mm 8 m/s 746 mmHg 83%
    15:00 +6°C° 0.5 mm 7 m/s 746 mmHg 83%
    16:00 +8°C° 0.3 mm 6 m/s 746 mmHg 83%
    17:00 +8°C° 0.3 mm 6 m/s 746 mmHg 82%
    18:00 +8°C° 0.3 mm 5 m/s 746 mmHg 81%
    19:00 +7°C° 0.1 mm 5 m/s 746 mmHg 84%
    20:00 +7°C° 0.1 mm 5 m/s 746 mmHg 86%
    21:00 +7°C° 0.1 mm 5 m/s 746 mmHg 89%
    22:00 +7°C° 0.4 mm 5 m/s 746 mmHg 90%
    23:00 +7°C° 0.4 mm 5 m/s 746 mmHg 90%

    28 Septembre, Vendredi

    Heure Température Précipitation Vent Pression Humidité
    00:00 +7°C° 0.4 mm 5 m/s 746 mmHg 91%
    01:00 +7°C° 0.1 mm 5 m/s 746 mmHg 91%
    02:00 +6°C° 0.1 mm 5 m/s 746 mmHg 91%
    03:00 +6°C° 0.1 mm 4 m/s 747 mmHg 90%
    04:00 +5°C° 0 mm 4 m/s 747 mmHg 90%
    05:00 +5°C° 0 mm 4 m/s 747 mmHg 90%
    06:00 +4°C° 0 mm 4 m/s 748 mmHg 90%
    07:00 +6°C° 0 mm 4 m/s 748 mmHg 84%
    08:00 +7°C° 0 mm 5 m/s 748 mmHg 79%
    09:00 +8°C° 0 mm 5 m/s 749 mmHg 74%
    10:00 +9°C° 0 mm 5 m/s 749 mmHg 67%
    11:00 +10°C° 0 mm 5 m/s 748 mmHg 60%
    12:00 +13°C° 0 mm 5 m/s 748 mmHg 53%
    13:00 +12°C° 0.1 mm 5 m/s 748 mmHg 59%
    14:00 +12°C° 0.1 mm 5 m/s 747 mmHg 64%
    15:00 +12°C° 0.1 mm 4 m/s 747 mmHg 69%
    16:00 +11°C° 0.1 mm 6 m/s 746 mmHg 73%
    17:00 +12°C° 0.1 mm 7 m/s 745 mmHg 77%
    18:00 +12°C° 0.1 mm 8 m/s 744 mmHg 81%
    19:00 +12°C° 0.1 mm 8 m/s 744 mmHg 81%
    20:00 +12°C° 0.1 mm 8 m/s 744 mmHg 81%
    21:00 +12°C° 0.1 mm 9 m/s 744 mmHg 81%
    22:00 +12°C° 0.1 mm 8 m/s 743 mmHg 82%
    23:00 +12°C° 0.1 mm 8 m/s 743 mmHg 83%

    29 Septembre, Samedi

    Heure Température Précipitation Vent Pression Humidité
    00:00 +13°C° 0.1 mm 8 m/s 743 mmHg 84%
    01:00 +12°C° 0.3 mm 7 m/s 743 mmHg 85%
    02:00 +12°C° 0.3 mm 7 m/s 744 mmHg 86%
    03:00 +13°C° 0.3 mm 6 m/s 744 mmHg 87%
    04:00 +11°C° 0.2 mm 6 m/s 745 mmHg 87%
    05:00 +10°C° 0.2 mm 5 m/s 745 mmHg 87%
    06:00 +9°C° 0.2 mm 5 m/s 746 mmHg 88%
    07:00 +8°C° 0.1 mm 5 m/s 747 mmHg 86%
    08:00 +8°C° 0.1 mm 4 m/s 748 mmHg 84%
    09:00 +7°C° 0.1 mm 4 m/s 749 mmHg 82%
    10:00 +7°C° 0.1 mm 4 m/s 749 mmHg 77%
    11:00 +8°C° 0.1 mm 4 m/s 750 mmHg 71%
    12:00 +9°C° 0.1 mm 3 m/s 751 mmHg 65%
    13:00 +10°C° 0 mm 3 m/s 751 mmHg 61%
    14:00 +10°C° 0 mm 3 m/s 751 mmHg 57%
    15:00 +11°C° 0 mm 3 m/s 752 mmHg 53%
    16:00 +10°C° 0 mm 3 m/s 752 mmHg 54%
    17:00 +9°C° 0 mm 3 m/s 753 mmHg 56%
    18:00 +8°C° 0 mm 2 m/s 753 mmHg 57%
    19:00 +8°C° 0 mm 3 m/s 754 mmHg 56%
    20:00 +8°C° 0 mm 3 m/s 754 mmHg 56%
    21:00 +6°C° 0 mm 4 m/s 755 mmHg 55%
    22:00 +7°C° 0 mm 3 m/s 755 mmHg 56%
    23:00 +5°C° 0 mm 3 m/s 756 mmHg 58%
    Voir plus